Weather History for Louisburg, NC

Change the Weather History Date:

Sunday, February 23, 2014

  Actual Average (KRDU) Record (KRDU)
Temperature  
Mean Temperature 51 °F 46 °F  
Max Temperature 69 °F 57 °F 79 °F (1980)
Min Temperature 33 °F 35 °F 7 °F (1978)
Degree Days  
Heating Degree Days 14 19  
Month to date heating degree days 484  
Since 1 July heating degree days 2481  
Cooling Degree Days 0 0  
Month to date cooling degree days 0  
Year to date cooling degree days 0  
Growing Degree Days 1 (Base 50)    
Moisture  
Dew Point 33 °F    
Average Humidity 51    
Maximum Humidity 93    
Minimum Humidity 23    
Precipitation  
Precipitation 0.00 in 0.12 in 1.55 in (1984)
Month to date precipitation 2.62  
Year to date precipitation 6.12  
Snow  
Snow 0.00 in 0.00 in 2.50 in (1901)
Month to date snowfall 1.6  
Since 1 July snowfall 5.2  
Snow Depth -    
Sea Level Pressure  
Sea Level Pressure 30.01 in    
Wind  
Wind Speed 2 mph (SW)    
Max Wind Speed 10 mph    
Max Gust Speed 20 mph    
Visibility 10 miles    
Events      
T = Trace of Precipitation, MM = Missing Value Source: NWS Daily Summary

Daily Weather History Graph

Daily Weather History Graph

Search for Another Location

Airport:

Trip Planner

Search our weather history database for the weather conditions in past years. The results will help you decide how hot, cold, wet, or windy it might be!

Date:

Astronomy

Feb. 23, 2014 Rise Set
Actual Time 6:51 AM EST 6:02 PM EST
Civil Twilight 6:25 AM EST 6:28 PM EST
Nautical Twilight 5:55 AM EST 6:58 PM EST
Astronomical Twilight 5:25 AM EST 7:28 PM EST
Moon 1:42 AM EST (2/23) 12:08 PM EST (2/23)
Length of Visible Light 12h 03m
Length of Day
11h 11m
Last Quarter, 39% of the Moon is Illuminated
Feb 23
Last Quarter
Mar 1
New
Mar 8
First Quarter
Mar 16
Full
Mar 23
Last Quarter

Hourly Weather History & Observations

Time (EST) Temp. Windchill Dew Point Humidity Pressure Visibility Wind Dir Wind Speed Gust Speed Precip Events Conditions
12:15 AM 44.6 °F - 30.2 °F 57% 30.12 in 10.0 mi Calm Calm - N/A   Clear
12:35 AM 44.6 °F 43.1 °F 30.2 °F 57% 30.11 in 10.0 mi South 3.5 mph - N/A   Clear
12:55 AM 44.6 °F - 30.2 °F 57% 30.11 in 10.0 mi Calm Calm - N/A   Clear
1:15 AM 44.6 °F - 30.2 °F 57% 30.10 in 10.0 mi Calm Calm - N/A   Clear
1:35 AM 44.6 °F - 30.2 °F 57% 30.10 in 10.0 mi Calm Calm - N/A   Clear
1:55 AM 37.4 °F - 32.0 °F 81% 30.10 in 10.0 mi Calm Calm - N/A   Clear
2:15 AM 35.6 °F - 32.0 °F 87% 30.10 in 10.0 mi Calm Calm - N/A   Clear
2:35 AM 37.4 °F - 32.0 °F 81% 30.09 in 10.0 mi Calm Calm - N/A   Clear
2:55 AM 35.6 °F - 32.0 °F 87% 30.09 in 10.0 mi Calm Calm - N/A   Clear
3:15 AM 37.4 °F - 32.0 °F 81% 30.09 in 10.0 mi Calm Calm - N/A   Clear
3:35 AM 39.2 °F - 32.0 °F 75% 30.09 in 10.0 mi Calm Calm - N/A   Clear
3:55 AM 37.4 °F - 32.0 °F 81% 30.09 in 10.0 mi Calm Calm - N/A   Clear
4:15 AM 37.4 °F - 32.0 °F 81% 30.09 in 10.0 mi Calm Calm - N/A   Clear
4:35 AM 35.6 °F - 32.0 °F 87% 30.08 in 10.0 mi Calm Calm - N/A   Clear
4:55 AM 33.8 °F - 32.0 °F 93% 30.08 in 10.0 mi Calm Calm - N/A   Clear
5:15 AM 33.8 °F - 32.0 °F 93% 30.09 in 10.0 mi Calm Calm - N/A   Clear
5:35 AM 33.8 °F - 32.0 °F 93% 30.09 in 10.0 mi Calm Calm - N/A   Clear
5:55 AM 33.8 °F - 32.0 °F 93% 30.10 in 10.0 mi Calm Calm - N/A   Clear
6:15 AM 35.6 °F - 32.0 °F 87% 30.10 in 10.0 mi Calm Calm - N/A   Clear
6:35 AM 35.6 °F - 32.0 °F 87% 30.10 in 10.0 mi Calm Calm - N/A   Clear
6:55 AM 35.6 °F - 32.0 °F 87% 30.10 in 10.0 mi Calm Calm - N/A   Clear
7:15 AM 37.4 °F - 32.0 °F 81% 30.10 in 10.0 mi Calm Calm - N/A   Clear
7:35 AM 37.4 °F - 33.8 °F 87% 30.10 in 10.0 mi Calm Calm - N/A   Clear
7:55 AM 41.0 °F - 35.6 °F 81% 30.10 in 10.0 mi Calm Calm - N/A   Clear
8:15 AM 46.4 °F - 37.4 °F 71% 30.10 in 10.0 mi Calm Calm - N/A   Clear
8:35 AM 53.6 °F - 33.8 °F 47% 30.10 in 10.0 mi Calm Calm - N/A   Clear
8:55 AM 55.4 °F - 33.8 °F 44% 30.10 in 10.0 mi SW 4.6 mph - N/A   Clear
9:15 AM 59.0 °F - 32.0 °F 36% 30.09 in 10.0 mi Calm Calm - N/A   Clear
9:35 AM 60.8 °F - 32.0 °F 34% 30.09 in 10.0 mi Calm Calm - N/A   Clear
9:55 AM 62.6 °F - 32.0 °F 32% 30.09 in 10.0 mi West 6.9 mph - N/A   Clear
10:15 AM 62.6 °F - 32.0 °F 32% 30.08 in 10.0 mi WSW 6.9 mph - N/A   Clear
10:35 AM 64.4 °F - 30.2 °F 28% 30.07 in 10.0 mi SW 3.5 mph - N/A   Scattered Clouds
10:55 AM 66.2 °F - 32.0 °F 28% 30.06 in 10.0 mi West 3.5 mph - N/A   Scattered Clouds
11:15 AM 64.4 °F - 32.0 °F 30% 30.05 in 10.0 mi WSW 5.8 mph - N/A   Clear
11:35 AM 64.4 °F - 32.0 °F 30% 30.04 in 10.0 mi WSW 3.5 mph - N/A   Clear
11:50 AM 64.4 °F - 32.0 °F 30% 30.04 in 10.0 mi SW 3.5 mph - N/A   Clear
12:15 PM 64.4 °F - 32.0 °F 30% 30.02 in 10.0 mi SW 9.2 mph - N/A   Clear
12:35 PM 68.0 °F - 33.8 °F 28% 30.01 in 10.0 mi South 6.9 mph - N/A   Clear
12:55 PM 68.0 °F - 32.0 °F 26% 30.00 in 10.0 mi SSW 6.9 mph - N/A   Clear
1:15 PM 68.0 °F - 32.0 °F 26% 29.99 in 10.0 mi South 10.4 mph 16.1 mph N/A   Clear
1:35 PM 69.8 °F - 32.0 °F 25% 29.98 in 10.0 mi WSW 6.9 mph 19.6 mph N/A   Clear
1:55 PM 69.8 °F - 32.0 °F 25% 29.97 in 10.0 mi SW 8.1 mph - N/A   Clear
2:15 PM 69.8 °F - 32.0 °F 25% 29.97 in 10.0 mi SW 9.2 mph 16.1 mph N/A   Clear
2:35 PM 69.8 °F - 32.0 °F 25% 29.96 in 10.0 mi SW 6.9 mph - N/A   Clear
2:55 PM 69.8 °F - 32.0 °F 25% 29.95 in 10.0 mi SW 6.9 mph - N/A   Clear
3:15 PM 69.8 °F - 32.0 °F 25% 29.94 in 10.0 mi SSW 4.6 mph - N/A   Clear
3:35 PM 69.8 °F - 32.0 °F 25% 29.94 in 10.0 mi West 4.6 mph - N/A   Clear
3:55 PM 69.8 °F - 32.0 °F 25% 29.94 in 10.0 mi SSW 10.4 mph - N/A   Clear
4:15 PM 69.8 °F - 30.2 °F 23% 29.93 in 10.0 mi SSW 8.1 mph 16.1 mph N/A   Clear
4:30 PM 69.8 °F - 30.2 °F 23% 29.93 in 10.0 mi SSW 8.1 mph - N/A   Clear
4:55 PM 69.8 °F - 32.0 °F 25% 29.93 in 10.0 mi SSW 4.6 mph - N/A   Clear
5:15 PM 68.0 °F - 33.8 °F 28% 29.92 in 10.0 mi SSW 5.8 mph - N/A   Clear
5:35 PM 66.2 °F - 33.8 °F 30% 29.92 in 10.0 mi South 6.9 mph - N/A   Clear
5:55 PM 64.4 °F - 33.8 °F 32% 29.91 in 10.0 mi South 5.8 mph - N/A   Clear
6:15 PM 62.6 °F - 35.6 °F 37% 29.91 in 10.0 mi South 4.6 mph - N/A   Clear
6:35 PM 60.8 °F - 35.6 °F 39% 29.91 in 10.0 mi SSW 3.5 mph - N/A   Clear
6:55 PM 60.8 °F - 35.6 °F 39% 29.91 in 10.0 mi Calm Calm - N/A   Clear
7:15 PM 60.8 °F - 35.6 °F 39% 29.91 in 10.0 mi SSW 4.6 mph - N/A   Clear
7:35 PM 60.8 °F - 37.4 °F 42% 29.91 in 10.0 mi SSW 4.6 mph - N/A   Clear
7:55 PM 60.8 °F - 37.4 °F 42% 29.91 in 10.0 mi SSW 3.5 mph - N/A   Clear
8:15 PM 59.0 °F - 37.4 °F 45% 29.90 in 10.0 mi Calm Calm - N/A   Clear
8:35 PM 59.0 °F - 37.4 °F 45% 29.90 in 10.0 mi Calm Calm - N/A   Clear
8:55 PM 59.0 °F - 37.4 °F 45% 29.90 in 10.0 mi Calm Calm - N/A   Clear
9:15 PM 59.0 °F - 37.4 °F 45% 29.90 in 10.0 mi SSW 3.5 mph - N/A   Clear
9:35 PM 59.0 °F - 37.4 °F 45% 29.90 in 10.0 mi SSW 4.6 mph - N/A   Clear
9:55 PM 59.0 °F - 37.4 °F 45% 29.90 in 10.0 mi SW 3.5 mph - N/A   Clear
10:15 PM 57.2 °F - 37.4 °F 48% 29.90 in 10.0 mi Calm Calm - N/A   Clear
10:35 PM 55.4 °F - 39.2 °F 54% 29.90 in 10.0 mi SSW 3.5 mph - N/A   Clear
10:55 PM 55.4 °F - 39.2 °F 54% 29.89 in 10.0 mi Calm Calm - N/A   Clear
11:15 PM 55.4 °F - 39.2 °F 54% 29.89 in 10.0 mi Calm Calm - N/A   Clear
11:35 PM 53.6 °F - 39.2 °F 58% 29.89 in 10.0 mi SSW 3.5 mph - N/A   Clear
11:55 PM 55.4 °F - 41.0 °F 58% 29.88 in 10.0 mi SSW 3.5 mph - N/A   Clear